Back to catalog

CZ-3B R/B

AliveHEO
NORAD 63525·ROCKET BODY·🇨🇳 China

Launched Apr 10, 2025 from Xichang Satellite Launch Center

Loading…

Next Passes (next 24 hours)

TLE

FreshSource: Space-Track

Epoch: Sep 14, 2026, 04:56 UTC

1 63525U 25073B   26257.20578776  .00300518  23811-6  15635-2 0  9992
2 63525  19.2094 128.5596 5991292  44.9079 350.3053  4.17520276 16666

Track CZ-3B R/B in real time with AllMySat

Download on the App Store